Location: Spring Creek
(38.2870°N, 100.2160°W)
Time: 23:46:46
(UTC+00:00)

DELTA 2 R/B (1) - Pass Details

Date: 04 October 2021
Orbit: 790 x 803 km, 39.6° (Epoch: 22 October)

Event Time Altitude Azimuth Distance (km) Brightness Sun altitude
Exits shadow 09:54:12 18° 138° (SE) 1,855 5.6 -32.6°
Drops below altitude 10° 09:57:32 10° 101° (E) 2,346 6.6 -32.0°
Sets 10:00:46 0° 83° (E) 3,279 7.8 -31.5°
